This demonstration page uses our WeatherBlox Daily Observations layout. Learn more.

Left ArrowRight Arrow

Hourly Observations for January 29, 2017

Temp ( °F °C ) Dew Point ( °F °C ) Humidity (%) Winds ( mph kmh ) Pressure ( in mb ) Visibility ( mi km ) Precip ( " mm )
12:53 am 00:53 Clear 31 -0.6 23 -5 72 72 NNW 5 7 30.37 1028 10 16 0.00 0.00
1:53 am 01:53 Clear 29 -1.7 23 -5 78 78 N 6 9 30.37 1028 10 16 0.00 0.00
2:53 am 02:53 Clear 27 -2.8 22 -5.6 81 81 N 6 9 30.37 1028 10 16 0.00 0.00
3:53 am 03:53 Clear 26 -3.3 21 -6.1 81 81 N 5 7 30.37 1028 10 16 0.00 0.00
4:53 am 04:53 Clear 26 -3.3 21 -6.1 81 81 NNW 7 11 30.37 1029 10 16 0.00 0.00
5:53 am 05:53 Clear 25 -3.9 20 -6.7 81 81 N 6 9 30.39 1029 10 16 0.00 0.00
6:53 am 06:53 Clear 24 -4.4 21 -6.1 88 88 NW 6 9 30.43 1030 10 16 0.00 0.00
7:53 am 07:53 Sunny 24 -4.4 20 -6.7 84 84 NW 5 7 30.45 1031 10 16 0.00 0.00
8:53 am 08:53 Sunny 32 0 25 -3.9 75 75 N 3 6 30.45 1031 10 16 0.00 0.00
9:53 am 09:53 Sunny 40 4.4 24 -4.4 53 53 Calm 30.47 1032 10 16 0.00 0.00
10:53 am 10:53 Sunny 49 9.4 19 -7.2 31 31 N 5 7 30.46 1032 10 16 0.00 0.00
11:53 am 11:53 Sunny 54 12.2 20 -6.7 26 26 Calm 30.44 1031 10 16 0.00 0.00
12:53 pm 12:53 Sunny 58 14.4 12 -11.1 16 16 W 6 9 30.40 1029 10 16 0.00 0.00
1:53 pm 13:53 Sunny 61 16.1 14 -10 16 16 WSW 10 17 30.37 1028 10 16 0.00 0.00
2:53 pm 14:53 Sunny 62 16.7 11 -11.7 13 13 WSW 12 19 30.34 1028 10 16 0.00 0.00
3:53 pm 15:53 Sunny 62 16.7 12 -11.1 14 14 W 9 15 30.33 1027 10 16 0.00 0.00
4:53 pm 16:53 Sunny 63 17.2 12 -11.1 13 13 WSW 9 15 30.32 1027 10 16 0.00 0.00
5:53 pm 17:53 Sunny 61 16.1 14 -10 16 16 SW 3 6 30.32 1027 10 16 0.00 0.00
6:53 pm 18:53 Clear 55 12.8 15 -9.4 20 20 S 3 6 30.33 1027 10 16 0.00 0.00
7:53 pm 19:53 Clear 49 9.4 20 -6.7 32 32 SE 3 6 30.34 1028 10 16 0.00 0.00
8:53 pm 20:53 Clear 47 8.3 18 -7.8 31 31 SSE 5 7 30.33 1027 10 16 0.00 0.00
9:53 pm 21:53 Clear 42 5.6 21 -6.1 43 43 S 6 9 30.34 1027 10 16 0.00 0.00
10:53 pm 22:53 Clear 42 5.6 19 -7.2 40 40 WSW 5 7 30.31 1027 10 16 0.00 0.00
11:53 pm 23:53 Clear 39 3.9 21 -6.1 48 48 SW 9 15 30.29 1026 10 16 0.00 0.00

Powered by AerisWeather